Date String (YYYY-MM-DD hh:mm:ss) UTC,Instrument flags,absolute air pressure of the measurement (hPa),sample flow rate (lpm),inlet stack bypass flow (lpm),air temperature of the measurement (°C),ambient temperature measured by the external sensor (°C),aerosol sample conditioner tube jacket temperature (°C),OPC LED temperature (°C),internal box temperature (°C),relative humidity of the measurement (%),span deviation,mass concentration of particles derived from Lorenz-Mie calculation of OPC scattering (μg/m³),mass concentration of particles derived from Lorenz-Mie calculation of OPC scattering (μg/m³),mass concentration of particles derived from Lorenz-Mie calculation of OPC scattering (μg/m³)
DateTimeUTC,F1_M11,P_M11,Q1_M11,Q2_M11,T1_M11,T2_M11,T3_M11,T4_M11,T5_M11,U1_M11,ZSPAN_M11,X0_M11,X2_M11,X1_M11
2023-09-02 18:00:00,SystemResetWarning,0834.1,5.00,000.00,027.5,025.8,000.0,035.8,029.2,29.0,0000.0,0011.88,0004.32,0003.48
2023-09-02 18:01:00,SystemResetWarning,0834.2,5.00,000.00,027.6,026.1,000.0,035.9,029.4,29.0,0000.0,0011.78,0004.34,0003.48
2023-09-02 18:02:00,SystemResetWarning,0834.2,5.01,000.00,027.7,026.4,000.0,035.9,029.5,29.2,0000.0,0013.27,0004.34,0003.48
2023-09-02 18:03:00,SystemResetWarning,0834.2,5.00,000.00,027.7,026.4,000.0,035.9,029.5,29.2,0000.0,0013.71,0004.32,0003.50
2023-09-02 18:04:00,SystemResetWarning,0834.1,4.98,000.00,027.7,025.3,000.0,035.8,029.1,29.0,0000.0,0013.17,0004.33,0003.51
2023-09-02 18:05:00,SystemResetWarning,0834.1,5.01,000.00,027.6,024.4,000.0,035.8,028.8,28.5,0000.0,0013.29,0004.30,0003.51
2023-09-02 18:06:00,SystemResetWarning,0834.1,5.01,000.00,027.5,024.5,000.0,035.8,028.9,29.1,-000.3,0013.15,0004.24,0003.51
2023-09-02 18:07:00,SystemResetWarning,0834.2,5.00,000.00,027.5,024.9,000.0,035.8,028.9,29.3,-000.4,0013.62,0004.25,0003.52
2023-09-02 18:08:00,SystemResetWarning,0834.1,5.00,000.00,027.5,025.3,000.0,035.8,029.1,29.0,-000.3,0013.83,0004.29,0003.54
2023-09-02 18:09:00,SystemResetWarning,0834.1,5.00,000.00,027.6,025.7,000.0,035.8,029.2,29.0,-001.2,0014.00,0004.31,0003.54
2023-09-02 18:10:00,SystemResetWarning,0834.1,5.00,000.00,027.6,026.1,000.0,035.9,029.4,29.0,-001.2,0015.58,0004.34,0003.53
2023-09-02 18:11:00,SystemResetWarning,0834.1,4.99,000.00,027.7,026.4,000.0,035.9,029.5,29.0,-000.3,0015.30,0004.33,0003.54
2023-09-02 18:12:00,SystemResetWarning,0834.1,5.00,000.00,027.7,025.9,000.0,035.9,029.3,28.8,-000.5,0015.69,0004.32,0003.54
2023-09-02 18:13:00,SystemResetWarning,0834.1,5.00,000.00,027.6,024.6,000.0,035.8,028.8,29.0,-000.2,0015.74,0004.33,0003.55
2023-09-02 18:14:00,SystemResetWarning,0834.1,5.02,000.00,027.5,024.4,000.0,035.7,028.8,29.0,0000.1,0014.72,0004.42,0003.56
2023-09-02 18:15:00,SystemResetWarning,0834.1,4.99,000.00,027.5,024.7,000.0,035.8,028.8,29.5,0000.0,0014.75,0004.43,0003.57
2023-09-02 18:16:00,SystemResetWarning,0834.0,4.99,000.00,027.5,025.0,000.0,035.8,028.9,30.1,0000.3,0014.95,0004.46,0003.58
2023-09-02 18:17:00,SystemResetWarning,0834.0,5.00,000.00,027.5,025.5,000.0,035.8,029.1,30.2,0000.0,0015.72,0004.47,0003.59
2023-09-02 18:18:00,SystemResetWarning,0834.0,5.01,000.00,027.5,025.9,000.0,035.8,029.3,29.9,0000.0,0016.78,0004.47,0003.58
2023-09-02 18:19:00,SystemResetWarning,0834.0,5.01,000.00,027.6,026.2,000.0,035.8,029.4,28.7,0000.0,0016.81,0004.41,0003.58
2023-09-02 18:20:00,SystemResetWarning,0834.0,5.00,000.00,027.7,026.5,000.0,035.9,029.5,28.3,0000.0,0016.62,0004.44,0003.58
2023-09-02 18:21:00,SystemResetWarning,0834.0,4.98,000.00,027.7,026.1,000.0,035.9,029.3,27.9,0000.0,0015.01,0004.44,0003.57
2023-09-02 18:22:00,SystemResetWarning,0834.0,5.00,000.00,027.6,024.8,000.0,035.8,028.9,29.2,0000.0,0014.68,0004.46,0003.58
2023-09-02 18:23:00,SystemResetWarning,0834.0,5.01,000.00,027.5,024.4,000.0,035.7,028.9,29.3,0000.0,0014.78,0004.47,0003.58
2023-09-02 18:24:00,SystemResetWarning,0834.0,5.01,000.00,027.5,024.7,000.0,035.7,028.9,29.0,0000.0,0013.51,0004.47,0003.57
2023-09-02 18:25:00,SystemResetWarning,0833.9,5.00,000.00,027.5,025.0,000.0,035.8,029.0,29.7,0000.0,0013.11,0004.42,0003.55
2023-09-02 18:26:00,SystemResetWarning,0833.9,5.00,000.00,027.5,025.4,000.0,035.8,029.1,29.6,0000.0,0012.75,0004.41,0003.55
2023-09-02 18:27:00,SystemResetWarning,0834.0,5.00,000.00,027.6,025.8,000.0,035.8,029.3,29.5,0000.0,0012.47,0004.36,0003.55
2023-09-02 18:28:00,SystemResetWarning,0833.9,5.00,000.00,027.6,026.2,000.0,035.9,029.4,29.2,0000.0,0011.95,0004.42,0003.54
2023-09-02 18:29:00,SystemResetWarning,0833.9,5.00,000.00,027.7,026.4,000.0,035.9,029.5,29.0,0000.0,0010.50,0004.42,0003.53
2023-09-02 18:30:00,SystemResetWarning,0833.9,4.98,000.00,027.7,025.3,000.0,035.8,029.0,28.9,0000.0,0010.16,0004.44,0003.53
2023-09-02 18:31:00,SystemResetWarning,0833.8,5.01,000.00,027.5,024.3,000.0,035.8,028.8,28.3,0000.0,0010.49,0004.44,0003.52
2023-09-02 18:32:00,SystemResetWarning,0833.8,5.02,000.00,027.5,024.4,000.0,035.7,028.8,28.6,0000.0,0010.48,0004.41,0003.52
2023-09-02 18:33:00,SystemResetWarning,0833.8,4.99,000.00,027.5,024.8,000.0,035.8,028.9,29.7,0000.0,0010.00,0004.38,0003.51
2023-09-02 18:34:00,SystemResetWarning,0833.8,5.00,000.00,027.5,025.2,000.0,035.8,029.0,30.0,0000.0,0009.33,0004.37,0003.52
2023-09-02 18:35:00,SystemResetWarning,0833.8,5.01,000.00,027.5,025.6,000.0,035.8,029.2,30.4,0000.0,0009.35,0004.35,0003.51
2023-09-02 18:36:00,SystemResetWarning,0833.9,5.00,000.00,027.6,026.0,000.0,035.8,029.3,29.2,0000.0,0010.14,0004.39,0003.51
2023-09-02 18:37:00,SystemResetWarning,0833.8,4.99,000.00,027.6,026.4,000.0,035.9,029.5,29.0,0000.0,0010.28,0004.44,0003.52
2023-09-02 18:38:00,SystemResetWarning,0833.8,4.99,000.00,027.7,026.6,000.0,035.9,029.5,29.4,0000.0,0010.14,0004.44,0003.52
2023-09-02 18:39:00,SystemResetWarning,0833.8,5.00,000.00,027.7,025.6,000.0,035.8,029.2,29.4,0000.0,0010.52,0004.37,0003.52
2023-09-02 18:40:00,SystemResetWarning,0833.8,5.01,000.00,027.6,024.6,000.0,035.8,028.9,29.6,0000.0,0010.57,0004.34,0003.52
2023-09-02 18:41:00,SystemResetWarning,0833.7,5.01,000.00,027.5,024.7,000.0,035.7,028.9,29.9,0000.0,0010.89,0004.35,0003.53
2023-09-02 18:42:00,SystemResetWarning,0833.8,5.00,000.00,027.5,025.0,000.0,035.8,029.0,30.2,0000.0,0011.53,0004.31,0003.53
2023-09-02 18:43:00,SystemResetWarning,0833.8,5.00,000.00,027.5,025.4,000.0,035.8,029.1,28.7,0000.0,0011.73,0004.30,0003.53
2023-09-02 18:44:00,SystemResetWarning,0833.8,5.00,000.00,027.6,025.8,000.0,035.8,029.3,28.6,0000.0,0012.05,0004.30,0003.52
2023-09-02 18:45:00,SystemResetWarning,0833.8,5.00,000.00,027.7,026.2,000.0,035.9,029.4,28.4,0000.0,0012.44,0004.29,0003.51
2023-09-02 18:46:00,SystemResetWarning,0833.8,5.00,000.00,027.7,026.4,000.0,035.9,029.5,28.1,0000.0,0012.89,0004.31,0003.52
2023-09-02 18:47:00,SystemResetWarning,0833.8,4.98,000.00,027.7,025.5,000.0,035.8,029.2,27.5,0000.0,0012.12,0004.24,0003.53
2023-09-02 18:48:00,SystemResetWarning,0833.7,5.01,000.00,027.6,024.5,000.0,035.8,028.8,28.0,0000.0,0012.28,0004.22,0003.53
2023-09-02 18:49:00,SystemResetWarning,0833.7,5.01,000.00,027.5,024.5,000.0,035.7,028.9,27.9,0000.0,0012.25,0004.26,0003.52
2023-09-02 18:50:00,SystemResetWarning,0833.8,5.01,000.00,027.5,024.9,000.0,035.8,029.0,28.4,0000.0,0011.96,0004.25,0003.52
2023-09-02 18:51:00,SystemResetWarning,0833.7,5.00,000.00,027.5,025.3,000.0,035.8,029.1,27.1,0000.0,0011.60,0004.28,0003.53
2023-09-02 18:52:00,SystemResetWarning,0833.7,5.00,000.00,027.6,025.7,000.0,035.8,029.3,27.2,0000.0,0011.45,0004.27,0003.53
2023-09-02 18:53:00,SystemResetWarning,0833.8,4.99,000.00,027.6,026.1,000.0,035.8,029.4,27.9,0000.0,0010.68,0004.27,0003.54
2023-09-02 18:54:00,SystemResetWarning,0833.7,4.99,000.00,027.7,026.4,000.0,035.9,029.5,28.1,0000.0,0010.59,0004.34,0003.55
2023-09-02 18:55:00,SystemResetWarning,0833.7,4.99,000.00,027.7,026.2,000.0,035.9,029.4,28.3,0000.0,0011.39,0004.34,0003.57
2023-09-02 18:56:00,SystemResetWarning,0833.7,5.00,000.00,027.6,025.0,000.0,035.8,028.9,28.1,0000.0,0011.00,0004.35,0003.57
2023-09-02 18:57:00,SystemResetWarning,0833.7,5.02,000.00,027.6,024.5,000.0,035.7,028.9,28.4,0000.0,0010.65,0004.35,0003.56
2023-09-02 18:58:00,SystemResetWarning,0833.6,5.00,000.00,027.5,024.7,000.0,035.7,028.9,28.0,0000.0,0010.84,0004.35,0003.55
2023-09-02 18:59:00,SystemResetWarning,0833.7,4.99,000.00,027.5,025.1,000.0,035.8,029.0,28.4,0000.0,0010.50,0004.36,0003.56
